owner,sensor,date,latitude,longitude,sea_surface_height_above_sea_level,qcFlag 
WAVCIS,ioos:station:WAVCIS:CSI16:1,2009-11-01T00:00:00Z,29.4012,-89.0355,9.693,11111222 
WAVCIS,ioos:station:WAVCIS:CSI16:1,2009-11-01T01:00:00Z,29.4012,-89.0355,9.702,11111222 
WAVCIS,ioos:station:WAVCIS:CSI16:1,2009-11-01T02:00:00Z,29.4012,-89.0355,9.688,11111222 
WAVCIS,ioos:station:WAVCIS:CSI16:1,2009-11-01T03:00:00Z,29.4012,-89.0355,9.66,11111222 
WAVCIS,ioos:station:WAVCIS:CSI16:1,2009-11-01T04:00:00Z,29.4012,-89.0355,9.627,11111222 
WAVCIS,ioos:station:WAVCIS:CSI16:1,2009-11-01T05:00:00Z,29.4012,-89.0355,9.571,11111222 
WAVCIS,ioos:station:WAVCIS:CSI16:1,2009-11-01T06:00:00Z,29.4012,-89.0355,9.506,11111222 
WAVCIS,ioos:station:WAVCIS:CSI16:1,2009-11-01T07:00:00Z,29.4012,-89.0355,9.438,11111222 
WAVCIS,ioos:station:WAVCIS:CSI16:1,2009-11-01T08:00:00Z,29.4012,-89.0355,9.391,11111222 
WAVCIS,ioos:station:WAVCIS:CSI16:1,2009-11-01T09:00:00Z,29.4012,-89.0355,9.361,11111222 
WAVCIS,ioos:station:WAVCIS:CSI16:1,2009-11-01T10:00:00Z,29.4012,-89.0355,9.349,11111222 
WAVCIS,ioos:station:WAVCIS:CSI16:1,2009-11-01T11:00:00Z,29.4012,-89.0355,9.362,11111222 
WAVCIS,ioos:station:WAVCIS:CSI16:1,2009-11-01T12:00:00Z,29.4012,-89.0355,9.381,11111222 
WAVCIS,ioos:station:WAVCIS:CSI16:1,2009-11-01T13:00:00Z,29.4012,-89.0355,9.4,11111222 
WAVCIS,ioos:station:WAVCIS:CSI16:1,2009-11-01T14:00:00Z,29.4012,-89.0355,9.446,11111222 
WAVCIS,ioos:station:WAVCIS:CSI16:1,2009-11-01T15:00:00Z,29.4012,-89.0355,9.475,11111222 
WAVCIS,ioos:station:WAVCIS:CSI16:1,2009-11-01T16:00:00Z,29.4012,-89.0355,9.504,11111222 
WAVCIS,ioos:station:WAVCIS:CSI16:1,2009-11-01T17:00:00Z,29.4012,-89.0355,9.53,11111222 
WAVCIS,ioos:station:WAVCIS:CSI16:1,2009-11-01T18:00:00Z,29.4012,-89.0355,9.55,11111222 
WAVCIS,ioos:station:WAVCIS:CSI16:1,2009-11-01T19:00:00Z,29.4012,-89.0355,9.57,11111222 
WAVCIS,ioos:station:WAVCIS:CSI16:1,2009-11-01T20:00:00Z,29.4012,-89.0355,9.601,11111222 
WAVCIS,ioos:station:WAVCIS:CSI16:1,2009-11-01T21:00:00Z,29.4012,-89.0355,9.615,11111222 
WAVCIS,ioos:station:WAVCIS:CSI16:1,2009-11-01T22:00:00Z,29.4012,-89.0355,9.649,11111222 
WAVCIS,ioos:station:WAVCIS:CSI16:1,2009-11-01T23:00:00Z,29.4012,-89.0355,9.693,11111222 
WAVCIS,ioos:station:WAVCIS:CSI16:1,2009-11-02T00:00:00Z,29.4012,-89.0355,9.717,11111222 
WAVCIS,ioos:station:WAVCIS:CSI16:1,2009-11-02T01:00:00Z,29.4012,-89.0355,9.733,11111222 
WAVCIS,ioos:station:WAVCIS:CSI16:1,2009-11-02T02:00:00Z,29.4012,-89.0355,9.724,11111222 
WAVCIS,ioos:station:WAVCIS:CSI16:1,2009-11-02T03:00:00Z,29.4012,-89.0355,9.709,11111222 
WAVCIS,ioos:station:WAVCIS:CSI16:1,2009-11-02T04:00:00Z,29.4012,-89.0355,9.663,11111222 
WAVCIS,ioos:station:WAVCIS:CSI16:1,2009-11-02T05:00:00Z,29.4012,-89.0355,9.615,11111222 
WAVCIS,ioos:station:WAVCIS:CSI16:1,2009-11-02T06:00:00Z,29.4012,-89.0355,9.541,11111222 
WAVCIS,ioos:station:WAVCIS:CSI16:1,2009-11-02T07:00:00Z,29.4012,-89.0355,9.448,11111222 
WAVCIS,ioos:station:WAVCIS:CSI16:1,2009-11-02T08:00:00Z,29.4012,-89.0355,9.375,11111222 
WAVCIS,ioos:station:WAVCIS:CSI16:1,2009-11-02T09:00:00Z,29.4012,-89.0355,9.314,11111222 
WAVCIS,ioos:station:WAVCIS:CSI16:1,2009-11-02T10:00:00Z,29.4012,-89.0355,9.29,11111222 
WAVCIS,ioos:station:WAVCIS:CSI16:1,2009-11-02T11:00:00Z,29.4012,-89.0355,9.286,11111222 
WAVCIS,ioos:station:WAVCIS:CSI16:1,2009-11-02T12:00:00Z,29.4012,-89.0355,9.3,11111222 
WAVCIS,ioos:station:WAVCIS:CSI16:1,2009-11-02T13:00:00Z,29.4012,-89.0355,9.339,11111222 
WAVCIS,ioos:station:WAVCIS:CSI16:1,2009-11-02T14:00:00Z,29.4012,-89.0355,9.374,11111222 
WAVCIS,ioos:station:WAVCIS:CSI16:1,2009-11-02T15:00:00Z,29.4012,-89.0355,9.416,11111222 
WAVCIS,ioos:station:WAVCIS:CSI16:1,2009-11-02T16:00:00Z,29.4012,-89.0355,9.468,11111222 
WAVCIS,ioos:station:WAVCIS:CSI16:1,2009-11-02T17:00:00Z,29.4012,-89.0355,9.507,11111222 
WAVCIS,ioos:station:WAVCIS:CSI16:1,2009-11-02T18:00:00Z,29.4012,-89.0355,9.544,11111222 
WAVCIS,ioos:station:WAVCIS:CSI16:1,2009-11-02T19:00:00Z,29.4012,-89.0355,9.581,11111222 
WAVCIS,ioos:station:WAVCIS:CSI16:1,2009-11-02T20:00:00Z,29.4012,-89.0355,9.623,11111222 
WAVCIS,ioos:station:WAVCIS:CSI16:1,2009-11-02T21:00:00Z,29.4012,-89.0355,9.663,11111222 
WAVCIS,ioos:station:WAVCIS:CSI16:1,2009-11-02T22:00:00Z,29.4012,-89.0355,9.71,11111222 
WAVCIS,ioos:station:WAVCIS:CSI16:1,2009-11-02T23:00:00Z,29.4012,-89.0355,9.76,11111222 
WAVCIS,ioos:station:WAVCIS:CSI16:1,2009-11-03T00:00:00Z,29.4012,-89.0355,9.789,11111222 
WAVCIS,ioos:station:WAVCIS:CSI16:1,2009-11-03T01:00:00Z,29.4012,-89.0355,9.809,11111222 
WAVCIS,ioos:station:WAVCIS:CSI16:1,2009-11-03T02:00:00Z,29.4012,-89.0355,9.816,11111222 
WAVCIS,ioos:station:WAVCIS:CSI16:1,2009-11-03T03:00:00Z,29.4012,-89.0355,9.801,11111222 
WAVCIS,ioos:station:WAVCIS:CSI16:1,2009-11-03T04:00:00Z,29.4012,-89.0355,9.765,11111222 
WAVCIS,ioos:station:WAVCIS:CSI16:1,2009-11-03T05:00:00Z,29.4012,-89.0355,9.706,11111222 
WAVCIS,ioos:station:WAVCIS:CSI16:1,2009-11-03T06:00:00Z,29.4012,-89.0355,9.627,11111222 
WAVCIS,ioos:station:WAVCIS:CSI16:1,2009-11-03T07:00:00Z,29.4012,-89.0355,9.528,11111222 
WAVCIS,ioos:station:WAVCIS:CSI16:1,2009-11-03T08:00:00Z,29.4012,-89.0355,9.421,11111222 
WAVCIS,ioos:station:WAVCIS:CSI16:1,2009-11-03T09:00:00Z,29.4012,-89.0355,9.337,11111222 
WAVCIS,ioos:station:WAVCIS:CSI16:1,2009-11-03T10:00:00Z,29.4012,-89.0355,9.277,11111222 
WAVCIS,ioos:station:WAVCIS:CSI16:1,2009-11-03T11:00:00Z,29.4012,-89.0355,9.258,11111222 
WAVCIS,ioos:station:WAVCIS:CSI16:1,2009-11-03T12:00:00Z,29.4012,-89.0355,9.264,11111222 
WAVCIS,ioos:station:WAVCIS:CSI16:1,2009-11-03T13:00:00Z,29.4012,-89.0355,9.281,11111222 
WAVCIS,ioos:station:WAVCIS:CSI16:1,2009-11-03T14:00:00Z,29.4012,-89.0355,9.318,11111222 
WAVCIS,ioos:station:WAVCIS:CSI16:1,2009-11-03T15:00:00Z,29.4012,-89.0355,9.362,11111222 
WAVCIS,ioos:station:WAVCIS:CSI16:1,2009-11-03T16:00:00Z,29.4012,-89.0355,9.417,11111222 
WAVCIS,ioos:station:WAVCIS:CSI16:1,2009-11-03T17:00:00Z,29.4012,-89.0355,9.453,11111222 
WAVCIS,ioos:station:WAVCIS:CSI16:1,2009-11-03T18:00:00Z,29.4012,-89.0355,9.498,11111222 
WAVCIS,ioos:station:WAVCIS:CSI16:1,2009-11-03T19:00:00Z,29.4012,-89.0355,9.536,11111222 
WAVCIS,ioos:station:WAVCIS:CSI16:1,2009-11-03T20:00:00Z,29.4012,-89.0355,9.592,11111222 
WAVCIS,ioos:station:WAVCIS:CSI16:1,2009-11-03T21:00:00Z,29.4012,-89.0355,9.648,11111222 
WAVCIS,ioos:station:WAVCIS:CSI16:1,2009-11-03T22:00:00Z,29.4012,-89.0355,9.694,11111222 
WAVCIS,ioos:station:WAVCIS:CSI16:1,2009-11-03T23:00:00Z,29.4012,-89.0355,9.745,11111222 
WAVCIS,ioos:station:WAVCIS:CSI16:1,2009-11-04T00:00:00Z,29.4012,-89.0355,9.802,11111222 
WAVCIS,ioos:station:WAVCIS:CSI16:1,2009-11-04T01:00:00Z,29.4012,-89.0355,9.835,11111222 
WAVCIS,ioos:station:WAVCIS:CSI16:1,2009-11-04T02:00:00Z,29.4012,-89.0355,9.853,11111222 
WAVCIS,ioos:station:WAVCIS:CSI16:1,2009-11-04T03:00:00Z,29.4012,-89.0355,9.831,11111222 
WAVCIS,ioos:station:WAVCIS:CSI16:1,2009-11-04T05:00:00Z,29.4012,-89.0355,9.791,11111222 
WAVCIS,ioos:station:WAVCIS:CSI16:1,2009-11-04T06:00:00Z,29.4012,-89.0355,9.741,11111222 
WAVCIS,ioos:station:WAVCIS:CSI16:1,2009-11-04T07:00:00Z,29.4012,-89.0355,9.653,11111222 
WAVCIS,ioos:station:WAVCIS:CSI16:1,2009-11-04T08:00:00Z,29.4012,-89.0355,9.553,11111222 
WAVCIS,ioos:station:WAVCIS:CSI16:1,2009-11-04T09:00:00Z,29.4012,-89.0355,9.453,11111222 
WAVCIS,ioos:station:WAVCIS:CSI16:1,2009-11-04T10:00:00Z,29.4012,-89.0355,9.379,11111222 
WAVCIS,ioos:station:WAVCIS:CSI16:1,2009-11-04T11:00:00Z,29.4012,-89.0355,9.334,11111222 
WAVCIS,ioos:station:WAVCIS:CSI16:1,2009-11-04T12:00:00Z,29.4012,-89.0355,9.311,11111222 
WAVCIS,ioos:station:WAVCIS:CSI16:1,2009-11-04T13:00:00Z,29.4012,-89.0355,9.303,11111222 
WAVCIS,ioos:station:WAVCIS:CSI16:1,2009-11-04T14:00:00Z,29.4012,-89.0355,9.326,11111222 
WAVCIS,ioos:station:WAVCIS:CSI16:1,2009-11-04T15:00:00Z,29.4012,-89.0355,9.355,11111222 
WAVCIS,ioos:station:WAVCIS:CSI16:1,2009-11-04T16:00:00Z,29.4012,-89.0355,9.393,11111222 
WAVCIS,ioos:station:WAVCIS:CSI16:1,2009-11-04T17:00:00Z,29.4012,-89.0355,9.447,11111222 
WAVCIS,ioos:station:WAVCIS:CSI16:1,2009-11-04T18:00:00Z,29.4012,-89.0355,9.501,11111222 
WAVCIS,ioos:station:WAVCIS:CSI16:1,2009-11-04T19:00:00Z,29.4012,-89.0355,9.554,11111222 
WAVCIS,ioos:station:WAVCIS:CSI16:1,2009-11-04T20:00:00Z,29.4012,-89.0355,9.596,11111222 
WAVCIS,ioos:station:WAVCIS:CSI16:1,2009-11-04T21:00:00Z,29.4012,-89.0355,9.649,11111222 
WAVCIS,ioos:station:WAVCIS:CSI16:1,2009-11-04T22:00:00Z,29.4012,-89.0355,9.708,11111222 
WAVCIS,ioos:station:WAVCIS:CSI16:1,2009-11-04T23:00:00Z,29.4012,-89.0355,9.775,11111222 
WAVCIS,ioos:station:WAVCIS:CSI16:1,2009-11-05T00:00:00Z,29.4012,-89.0355,9.837,11111222 
WAVCIS,ioos:station:WAVCIS:CSI16:1,2009-11-05T01:00:00Z,29.4012,-89.0355,9.882,11111222 
WAVCIS,ioos:station:WAVCIS:CSI16:1,2009-11-05T02:00:00Z,29.4012,-89.0355,9.917,11111222 
WAVCIS,ioos:station:WAVCIS:CSI16:1,2009-11-05T03:00:00Z,29.4012,-89.0355,9.923,11111222 
WAVCIS,ioos:station:WAVCIS:CSI16:1,2009-11-05T04:00:00Z,29.4012,-89.0355,9.912,11111222 
WAVCIS,ioos:station:WAVCIS:CSI16:1,2009-11-05T05:00:00Z,29.4012,-89.0355,9.884,11111222 
WAVCIS,ioos:station:WAVCIS:CSI16:1,2009-11-05T06:00:00Z,29.4012,-89.0355,9.84,11111222 
WAVCIS,ioos:station:WAVCIS:CSI16:1,2009-11-05T07:00:00Z,29.4012,-89.0355,9.766,11111222 
WAVCIS,ioos:station:WAVCIS:CSI16:1,2009-11-05T08:00:00Z,29.4012,-89.0355,9.67,11111222 
WAVCIS,ioos:station:WAVCIS:CSI16:1,2009-11-05T09:00:00Z,29.4012,-89.0355,9.564,11111222 
WAVCIS,ioos:station:WAVCIS:CSI16:1,2009-11-05T10:00:00Z,29.4012,-89.0355,9.454,11111222 
WAVCIS,ioos:station:WAVCIS:CSI16:1,2009-11-05T11:00:00Z,29.4012,-89.0355,9.378,11111222 
WAVCIS,ioos:station:WAVCIS:CSI16:1,2009-11-05T12:00:00Z,29.4012,-89.0355,9.333,11111222 
WAVCIS,ioos:station:WAVCIS:CSI16:1,2009-11-05T13:00:00Z,29.4012,-89.0355,9.31,11111222 
WAVCIS,ioos:station:WAVCIS:CSI16:1,2009-11-05T14:00:00Z,29.4012,-89.0355,9.308,11111222 
WAVCIS,ioos:station:WAVCIS:CSI16:1,2009-11-05T15:00:00Z,29.4012,-89.0355,9.33,11111222 
WAVCIS,ioos:station:WAVCIS:CSI16:1,2009-11-05T16:00:00Z,29.4012,-89.0355,9.363,11111222 
WAVCIS,ioos:station:WAVCIS:CSI16:1,2009-11-05T17:00:00Z,29.4012,-89.0355,9.413,11111222 
WAVCIS,ioos:station:WAVCIS:CSI16:1,2009-11-05T18:00:00Z,29.4012,-89.0355,9.46,11111222 
WAVCIS,ioos:station:WAVCIS:CSI16:1,2009-11-05T19:00:00Z,29.4012,-89.0355,9.516,11111222 
WAVCIS,ioos:station:WAVCIS:CSI16:1,2009-11-05T20:00:00Z,29.4012,-89.0355,9.572,11111222 
WAVCIS,ioos:station:WAVCIS:CSI16:1,2009-11-05T21:00:00Z,29.4012,-89.0355,9.629,11111222 
WAVCIS,ioos:station:WAVCIS:CSI16:1,2009-11-05T22:00:00Z,29.4012,-89.0355,9.693,11111222 
WAVCIS,ioos:station:WAVCIS:CSI16:1,2009-11-05T23:00:00Z,29.4012,-89.0355,9.749,11111222 
WAVCIS,ioos:station:WAVCIS:CSI16:1,2009-11-06T00:00:00Z,29.4012,-89.0355,9.814,11111222 
WAVCIS,ioos:station:WAVCIS:CSI16:1,2009-11-06T01:00:00Z,29.4012,-89.0355,9.87,11111222 
WAVCIS,ioos:station:WAVCIS:CSI16:1,2009-11-06T02:00:00Z,29.4012,-89.0355,9.913,11111222 
WAVCIS,ioos:station:WAVCIS:CSI16:1,2009-11-06T03:00:00Z,29.4012,-89.0355,9.942,11111222 
WAVCIS,ioos:station:WAVCIS:CSI16:1,2009-11-06T04:00:00Z,29.4012,-89.0355,9.928,11111222 
WAVCIS,ioos:station:WAVCIS:CSI16:1,2009-11-06T05:00:00Z,29.4012,-89.0355,9.917,11111222 
WAVCIS,ioos:station:WAVCIS:CSI16:1,2009-11-06T06:00:00Z,29.4012,-89.0355,9.884,11111222 
WAVCIS,ioos:station:WAVCIS:CSI16:1,2009-11-06T07:00:00Z,29.4012,-89.0355,9.828,11111222 
WAVCIS,ioos:station:WAVCIS:CSI16:1,2009-11-06T08:00:00Z,29.4012,-89.0355,9.738,11111222 
WAVCIS,ioos:station:WAVCIS:CSI16:1,2009-11-06T09:00:00Z,29.4012,-89.0355,9.623,11111222 
WAVCIS,ioos:station:WAVCIS:CSI16:1,2009-11-06T10:00:00Z,29.4012,-89.0355,9.508,11111222 
WAVCIS,ioos:station:WAVCIS:CSI16:1,2009-11-06T11:00:00Z,29.4012,-89.0355,9.414,11111222 
WAVCIS,ioos:station:WAVCIS:CSI16:1,2009-11-06T12:00:00Z,29.4012,-89.0355,9.357,11111222 
WAVCIS,ioos:station:WAVCIS:CSI16:1,2009-11-06T13:00:00Z,29.4012,-89.0355,9.313,11111222 
WAVCIS,ioos:station:WAVCIS:CSI16:1,2009-11-06T14:00:00Z,29.4012,-89.0355,9.286,11111222 
WAVCIS,ioos:station:WAVCIS:CSI16:1,2009-11-06T15:00:00Z,29.4012,-89.0355,9.264,11111222 
WAVCIS,ioos:station:WAVCIS:CSI16:1,2009-11-06T16:00:00Z,29.4012,-89.0355,9.269,11111222 
WAVCIS,ioos:station:WAVCIS:CSI16:1,2009-11-06T17:00:00Z,29.4012,-89.0355,9.292,11111222 
WAVCIS,ioos:station:WAVCIS:CSI16:1,2009-11-06T18:00:00Z,29.4012,-89.0355,9.327,11111222 
WAVCIS,ioos:station:WAVCIS:CSI16:1,2009-11-06T19:00:00Z,29.4012,-89.0355,9.366,11111222 
WAVCIS,ioos:station:WAVCIS:CSI16:1,2009-11-06T20:00:00Z,29.4012,-89.0355,9.419,11111222 
WAVCIS,ioos:station:WAVCIS:CSI16:1,2009-11-06T21:00:00Z,29.4012,-89.0355,9.477,11111222 
WAVCIS,ioos:station:WAVCIS:CSI16:1,2009-11-06T22:00:00Z,29.4012,-89.0355,9.53,11111222 
WAVCIS,ioos:station:WAVCIS:CSI16:1,2009-11-06T23:00:00Z,29.4012,-89.0355,9.593,11111222 
WAVCIS,ioos:station:WAVCIS:CSI16:1,2009-11-07T00:00:00Z,29.4012,-89.0355,9.682,11111222 
WAVCIS,ioos:station:WAVCIS:CSI16:1,2009-11-07T01:00:00Z,29.4012,-89.0355,9.741,11111222 
WAVCIS,ioos:station:WAVCIS:CSI16:1,2009-11-07T02:00:00Z,29.4012,-89.0355,9.803,11111222 
WAVCIS,ioos:station:WAVCIS:CSI16:1,2009-11-07T03:00:00Z,29.4012,-89.0355,9.841,11111222 
WAVCIS,ioos:station:WAVCIS:CSI16:1,2009-11-07T04:00:00Z,29.4012,-89.0355,9.857,11111222 
WAVCIS,ioos:station:WAVCIS:CSI16:1,2009-11-07T05:00:00Z,29.4012,-89.0355,9.861,11111222 
WAVCIS,ioos:station:WAVCIS:CSI16:1,2009-11-07T06:00:00Z,29.4012,-89.0355,9.853,11111222 
WAVCIS,ioos:station:WAVCIS:CSI16:1,2009-11-07T07:00:00Z,29.4012,-89.0355,9.824,11111222 
WAVCIS,ioos:station:WAVCIS:CSI16:1,2009-11-07T08:00:00Z,29.4012,-89.0355,9.782,11111222 
WAVCIS,ioos:station:WAVCIS:CSI16:1,2009-11-07T09:00:00Z,29.4012,-89.0355,9.708,11111222 
WAVCIS,ioos:station:WAVCIS:CSI16:1,2009-11-07T10:00:00Z,29.4012,-89.0355,9.62,11111222 
WAVCIS,ioos:station:WAVCIS:CSI16:1,2009-11-07T11:00:00Z,29.4012,-89.0355,9.54,11111222 
WAVCIS,ioos:station:WAVCIS:CSI16:1,2009-11-07T12:00:00Z,29.4012,-89.0355,9.455,11111222 
WAVCIS,ioos:station:WAVCIS:CSI16:1,2009-11-07T13:00:00Z,29.4012,-89.0355,9.395,11111222 
WAVCIS,ioos:station:WAVCIS:CSI16:1,2009-11-07T14:00:00Z,29.4012,-89.0355,9.348,11111222 
WAVCIS,ioos:station:WAVCIS:CSI16:1,2009-11-07T15:00:00Z,29.4012,-89.0355,9.317,11111222 
WAVCIS,ioos:station:WAVCIS:CSI16:1,2009-11-07T16:00:00Z,29.4012,-89.0355,9.301,11111222 
WAVCIS,ioos:station:WAVCIS:CSI16:1,2009-11-07T17:00:00Z,29.4012,-89.0355,9.3,11111222 
WAVCIS,ioos:station:WAVCIS:CSI16:1,2009-11-07T18:00:00Z,29.4012,-89.0355,9.309,11111222 
WAVCIS,ioos:station:WAVCIS:CSI16:1,2009-11-07T19:00:00Z,29.4012,-89.0355,9.337,11111222 
WAVCIS,ioos:station:WAVCIS:CSI16:1,2009-11-07T20:00:00Z,29.4012,-89.0355,9.386,11111222 
WAVCIS,ioos:station:WAVCIS:CSI16:1,2009-11-07T21:00:00Z,29.4012,-89.0355,9.436,11111222 
WAVCIS,ioos:station:WAVCIS:CSI16:1,2009-11-07T22:00:00Z,29.4012,-89.0355,9.497,11111222 
WAVCIS,ioos:station:WAVCIS:CSI16:1,2009-11-07T23:00:00Z,29.4012,-89.0355,9.561,11111222 
WAVCIS,ioos:station:WAVCIS:CSI16:1,2009-11-08T00:00:00Z,29.4012,-89.0355,9.625,11111222 
WAVCIS,ioos:station:WAVCIS:CSI16:1,2009-11-08T01:00:00Z,29.4012,-89.0355,9.689,11111222 
WAVCIS,ioos:station:WAVCIS:CSI16:1,2009-11-08T02:00:00Z,29.4012,-89.0355,9.748,11111222 
WAVCIS,ioos:station:WAVCIS:CSI16:1,2009-11-08T03:00:00Z,29.4012,-89.0355,9.805,11111222 
WAVCIS,ioos:station:WAVCIS:CSI16:1,2009-11-08T04:00:00Z,29.4012,-89.0355,9.826,11111222 
WAVCIS,ioos:station:WAVCIS:CSI16:1,2009-11-08T05:00:00Z,29.4012,-89.0355,9.848,11111222 
WAVCIS,ioos:station:WAVCIS:CSI16:1,2009-11-08T06:00:00Z,29.4012,-89.0355,9.852,11111222 
WAVCIS,ioos:station:WAVCIS:CSI16:1,2009-11-08T07:00:00Z,29.4012,-89.0355,9.844,11111222 
WAVCIS,ioos:station:WAVCIS:CSI16:1,2009-11-08T08:00:00Z,29.4012,-89.0355,9.823,11111222 
WAVCIS,ioos:station:WAVCIS:CSI16:1,2009-11-08T09:00:00Z,29.4012,-89.0355,9.781,11111222 
WAVCIS,ioos:station:WAVCIS:CSI16:1,2009-11-08T10:00:00Z,29.4012,-89.0355,9.738,11111222 
WAVCIS,ioos:station:WAVCIS:CSI16:1,2009-11-08T11:00:00Z,29.4012,-89.0355,9.677,11111222 
WAVCIS,ioos:station:WAVCIS:CSI16:1,2009-11-08T12:00:00Z,29.4012,-89.0355,9.616,11111222 
WAVCIS,ioos:station:WAVCIS:CSI16:1,2009-11-08T13:00:00Z,29.4012,-89.0355,9.568,11111222 
WAVCIS,ioos:station:WAVCIS:CSI16:1,2009-11-08T14:00:00Z,29.4012,-89.0355,9.526,11111222 
WAVCIS,ioos:station:WAVCIS:CSI16:1,2009-11-08T15:00:00Z,29.4012,-89.0355,9.488,11111222 
WAVCIS,ioos:station:WAVCIS:CSI16:1,2009-11-08T16:00:00Z,29.4012,-89.0355,9.478,11111222 
WAVCIS,ioos:station:WAVCIS:CSI16:1,2009-11-08T17:00:00Z,29.4012,-89.0355,9.462,11111222 
WAVCIS,ioos:station:WAVCIS:CSI16:1,2009-11-08T18:00:00Z,29.4012,-89.0355,9.455,11111222 
WAVCIS,ioos:station:WAVCIS:CSI16:1,2009-11-08T19:00:00Z,29.4012,-89.0355,9.468,11111222 
WAVCIS,ioos:station:WAVCIS:CSI16:1,2009-11-08T20:00:00Z,29.4012,-89.0355,9.526,11111222 
WAVCIS,ioos:station:WAVCIS:CSI16:1,2009-11-08T21:00:00Z,29.4012,-89.0355,9.561,11111222 
WAVCIS,ioos:station:WAVCIS:CSI16:1,2009-11-08T22:00:00Z,29.4012,-89.0355,9.604,11111222 
WAVCIS,ioos:station:WAVCIS:CSI16:1,2009-11-08T23:00:00Z,29.4012,-89.0355,9.665,11111222 
WAVCIS,ioos:station:WAVCIS:CSI16:1,2009-11-09T00:00:00Z,29.4012,-89.0355,9.712,11111222 
WAVCIS,ioos:station:WAVCIS:CSI16:1,2009-11-09T01:00:00Z,29.4012,-89.0355,9.795,11111222 
WAVCIS,ioos:station:WAVCIS:CSI16:1,2009-11-09T02:00:00Z,29.4012,-89.0355,9.873,11111222 
WAVCIS,ioos:station:WAVCIS:CSI16:1,2009-11-09T03:00:00Z,29.4012,-89.0355,9.933,11111222 
WAVCIS,ioos:station:WAVCIS:CSI16:1,2009-11-09T04:00:00Z,29.4012,-89.0355,9.956,11111222 
WAVCIS,ioos:station:WAVCIS:CSI16:1,2009-11-09T05:00:00Z,29.4012,-89.0355,9.991,11111222 
WAVCIS,ioos:station:WAVCIS:CSI16:1,2009-11-09T06:00:00Z,29.4012,-89.0355,9.996,11111222 
WAVCIS,ioos:station:WAVCIS:CSI16:1,2009-11-09T07:00:00Z,29.4012,-89.0355,9.988,11111222 
WAVCIS,ioos:station:WAVCIS:CSI16:1,2009-11-09T08:00:00Z,29.4012,-89.0355,9.975,11111222 
WAVCIS,ioos:station:WAVCIS:CSI16:1,2009-11-09T09:00:00Z,29.4012,-89.0355,9.946,11111222 
WAVCIS,ioos:station:WAVCIS:CSI16:1,2009-11-09T10:00:00Z,29.4012,-89.0355,9.918,11111222 
WAVCIS,ioos:station:WAVCIS:CSI16:1,2009-11-09T11:00:00Z,29.4012,-89.0355,9.866,11111222 
WAVCIS,ioos:station:WAVCIS:CSI16:1,2009-11-09T12:00:00Z,29.4012,-89.0355,9.867,11111222 
WAVCIS,ioos:station:WAVCIS:CSI16:1,2009-11-09T13:00:00Z,29.4012,-89.0355,9.83,11111222 
WAVCIS,ioos:station:WAVCIS:CSI16:1,2009-11-09T14:00:00Z,29.4012,-89.0355,9.792,11111222 
WAVCIS,ioos:station:WAVCIS:CSI16:1,2009-11-09T15:00:00Z,29.4012,-89.0355,9.77,11111222 
WAVCIS,ioos:station:WAVCIS:CSI16:1,2009-11-09T16:00:00Z,29.4012,-89.0355,9.783,11111222 
WAVCIS,ioos:station:WAVCIS:CSI16:1,2009-11-09T17:00:00Z,29.4012,-89.0355,9.802,11111222 
WAVCIS,ioos:station:WAVCIS:CSI16:1,2009-11-09T18:00:00Z,29.4012,-89.0355,9.767,11111222 
WAVCIS,ioos:station:WAVCIS:CSI16:1,2009-11-09T19:00:00Z,29.4012,-89.0355,9.771,11111222 
WAVCIS,ioos:station:WAVCIS:CSI16:1,2009-11-09T20:00:00Z,29.4012,-89.0355,9.864,11111222 
WAVCIS,ioos:station:WAVCIS:CSI16:1,2009-11-09T21:00:00Z,29.4012,-89.0355,9.873,11111222 
WAVCIS,ioos:station:WAVCIS:CSI16:1,2009-11-09T22:00:00Z,29.4012,-89.0355,9.938,11111222 
WAVCIS,ioos:station:WAVCIS:CSI16:1,2009-11-09T23:00:00Z,29.4012,-89.0355,9.944,11111222 
WAVCIS,ioos:station:WAVCIS:CSI16:1,2009-11-10T00:00:00Z,29.4012,-89.0355,9.977,11111222 
WAVCIS,ioos:station:WAVCIS:CSI16:1,2009-11-10T01:00:00Z,29.4012,-89.0355,10.166,11144222 
WAVCIS,ioos:station:WAVCIS:CSI16:1,2009-11-10T02:00:00Z,29.4012,-89.0355,10.242,11144222 
WAVCIS,ioos:station:WAVCIS:CSI16:1,2009-11-10T03:00:00Z,29.4012,-89.0355,10.294,11144222 
WAVCIS,ioos:station:WAVCIS:CSI16:1,2009-11-10T04:00:00Z,29.4012,-89.0355,10.281,11144222 
WAVCIS,ioos:station:WAVCIS:CSI16:1,2009-11-10T05:00:00Z,29.4012,-89.0355,10.234,11144222 
WAVCIS,ioos:station:WAVCIS:CSI16:1,2009-11-10T06:00:00Z,29.4012,-89.0355,10.215,11144222 
WAVCIS,ioos:station:WAVCIS:CSI16:1,2009-11-10T07:00:00Z,29.4012,-89.0355,10.121,11144222 
WAVCIS,ioos:station:WAVCIS:CSI16:1,2009-11-10T08:00:00Z,29.4012,-89.0355,10.086,11144222 
WAVCIS,ioos:station:WAVCIS:CSI16:1,2009-11-10T09:00:00Z,29.4012,-89.0355,9.993,11111222 
WAVCIS,ioos:station:WAVCIS:CSI16:1,2009-11-10T10:00:00Z,29.4012,-89.0355,9.929,11111222 
WAVCIS,ioos:station:WAVCIS:CSI16:1,2009-11-10T11:00:00Z,29.4012,-89.0355,9.879,11111222 
WAVCIS,ioos:station:WAVCIS:CSI16:1,2009-11-10T12:00:00Z,29.4012,-89.0355,9.822,11111222 
WAVCIS,ioos:station:WAVCIS:CSI16:1,2009-11-10T13:00:00Z,29.4012,-89.0355,9.773,11111222 
WAVCIS,ioos:station:WAVCIS:CSI16:1,2009-11-10T14:00:00Z,29.4012,-89.0355,9.752,11111222 
WAVCIS,ioos:station:WAVCIS:CSI16:1,2009-11-10T15:00:00Z,29.4012,-89.0355,9.713,11111222 
WAVCIS,ioos:station:WAVCIS:CSI16:1,2009-11-10T16:00:00Z,29.4012,-89.0355,9.676,11111222 
WAVCIS,ioos:station:WAVCIS:CSI16:1,2009-11-10T17:00:00Z,29.4012,-89.0355,9.647,11111222 
WAVCIS,ioos:station:WAVCIS:CSI16:1,2009-11-10T18:00:00Z,29.4012,-89.0355,9.621,11111222 
WAVCIS,ioos:station:WAVCIS:CSI16:1,2009-11-10T19:00:00Z,29.4012,-89.0355,9.613,11111222 
WAVCIS,ioos:station:WAVCIS:CSI16:1,2009-11-10T20:00:00Z,29.4012,-89.0355,9.623,11111222 
WAVCIS,ioos:station:WAVCIS:CSI16:1,2009-11-10T21:00:00Z,29.4012,-89.0355,9.63,11111222 
WAVCIS,ioos:station:WAVCIS:CSI16:1,2009-11-10T22:00:00Z,29.4012,-89.0355,9.644,11111222 
WAVCIS,ioos:station:WAVCIS:CSI16:1,2009-11-10T23:00:00Z,29.4012,-89.0355,9.678,11111222 
WAVCIS,ioos:station:WAVCIS:CSI16:1,2009-11-11T00:00:00Z,29.4012,-89.0355,9.721,11111222 
WAVCIS,ioos:station:WAVCIS:CSI16:1,2009-11-11T01:00:00Z,29.4012,-89.0355,9.738,11111222 
WAVCIS,ioos:station:WAVCIS:CSI16:1,2009-11-11T02:00:00Z,29.4012,-89.0355,9.758,11111222 
WAVCIS,ioos:station:WAVCIS:CSI16:1,2009-11-11T03:00:00Z,29.4012,-89.0355,9.771,11111222 
WAVCIS,ioos:station:WAVCIS:CSI16:1,2009-11-11T05:00:00Z,29.4012,-89.0355,9.777,11111222 
WAVCIS,ioos:station:WAVCIS:CSI16:1,2009-11-11T06:00:00Z,29.4012,-89.0355,9.77,11111222 
WAVCIS,ioos:station:WAVCIS:CSI16:1,2009-11-11T07:00:00Z,29.4012,-89.0355,9.759,11111222 
WAVCIS,ioos:station:WAVCIS:CSI16:1,2009-11-11T08:00:00Z,29.4012,-89.0355,9.747,11111222 
WAVCIS,ioos:station:WAVCIS:CSI16:1,2009-11-11T09:00:00Z,29.4012,-89.0355,9.721,11111222 
WAVCIS,ioos:station:WAVCIS:CSI16:1,2009-11-11T10:00:00Z,29.4012,-89.0355,9.698,11111222 
WAVCIS,ioos:station:WAVCIS:CSI16:1,2009-11-11T11:00:00Z,29.4012,-89.0355,9.689,11111222 
WAVCIS,ioos:station:WAVCIS:CSI16:1,2009-11-11T12:00:00Z,29.4012,-89.0355,9.669,11111222 
WAVCIS,ioos:station:WAVCIS:CSI16:1,2009-11-11T13:00:00Z,29.4012,-89.0355,9.655,11111222 
WAVCIS,ioos:station:WAVCIS:CSI16:1,2009-11-11T14:00:00Z,29.4012,-89.0355,9.627,11111222 
WAVCIS,ioos:station:WAVCIS:CSI16:1,2009-11-11T15:00:00Z,29.4012,-89.0355,9.599,11111222 
WAVCIS,ioos:station:WAVCIS:CSI16:1,2009-11-11T16:00:00Z,29.4012,-89.0355,9.582,11111222 
WAVCIS,ioos:station:WAVCIS:CSI16:1,2009-11-11T17:00:00Z,29.4012,-89.0355,9.559,11111222 
WAVCIS,ioos:station:WAVCIS:CSI16:1,2009-11-11T18:00:00Z,29.4012,-89.0355,9.545,11111222 
WAVCIS,ioos:station:WAVCIS:CSI16:1,2009-11-11T19:00:00Z,29.4012,-89.0355,9.539,11111222 
WAVCIS,ioos:station:WAVCIS:CSI16:1,2009-11-11T20:00:00Z,29.4012,-89.0355,9.52,11111222 
WAVCIS,ioos:station:WAVCIS:CSI16:1,2009-11-11T21:00:00Z,29.4012,-89.0355,9.527,11111222 
WAVCIS,ioos:station:WAVCIS:CSI16:1,2009-11-11T22:00:00Z,29.4012,-89.0355,9.553,11111222 
WAVCIS,ioos:station:WAVCIS:CSI16:1,2009-11-11T23:00:00Z,29.4012,-89.0355,9.586,11111222 
WAVCIS,ioos:station:WAVCIS:CSI16:1,2009-11-12T00:00:00Z,29.4012,-89.0355,9.612,11111222 
WAVCIS,ioos:station:WAVCIS:CSI16:1,2009-11-12T01:00:00Z,29.4012,-89.0355,9.627,11111222 
WAVCIS,ioos:station:WAVCIS:CSI16:1,2009-11-12T02:00:00Z,29.4012,-89.0355,9.62,11111222 
WAVCIS,ioos:station:WAVCIS:CSI16:1,2009-11-12T03:00:00Z,29.4012,-89.0355,9.614,11111222 
WAVCIS,ioos:station:WAVCIS:CSI16:1,2009-11-12T04:00:00Z,29.4012,-89.0355,9.594,11111222 
WAVCIS,ioos:station:WAVCIS:CSI16:1,2009-11-12T05:00:00Z,29.4012,-89.0355,9.555,11111222 
WAVCIS,ioos:station:WAVCIS:CSI16:1,2009-11-12T06:00:00Z,29.4012,-89.0355,9.53,11111222 